Year,Month,Day,Hour,Minute,Value (Times are PST for temperature in C)
2011,04,29,00,00,4.80
2011,04,29,00,01,4.80
2011,04,29,00,02,4.80
2011,04,29,00,03,4.80
2011,04,29,00,04,4.80
2011,04,29,00,05,4.80
2011,04,29,00,06,4.80
2011,04,29,00,07,4.80
2011,04,29,00,08,4.80
2011,04,29,00,09,4.80
2011,04,29,00,10,4.80
2011,04,29,00,11,4.80
2011,04,29,00,12,4.70
2011,04,29,00,13,4.70
2011,04,29,00,14,4.70
2011,04,29,00,15,4.70
2011,04,29,00,16,4.70
2011,04,29,00,17,4.70
2011,04,29,00,18,4.70
2011,04,29,00,19,4.60
2011,04,29,00,20,4.60
2011,04,29,00,21,4.60
2011,04,29,00,22,4.60
2011,04,29,00,23,4.60
2011,04,29,00,24,4.70
2011,04,29,00,25,4.70
2011,04,29,00,26,4.70
2011,04,29,00,27,4.70
2011,04,29,00,28,4.70
2011,04,29,00,29,4.70
2011,04,29,00,30,4.70
2011,04,29,00,31,4.70
2011,04,29,00,32,4.70
2011,04,29,00,33,4.70
2011,04,29,00,34,4.70
2011,04,29,00,35,4.70
2011,04,29,00,36,4.70
2011,04,29,00,37,4.70
2011,04,29,00,38,4.70
2011,04,29,00,39,4.60
2011,04,29,00,40,4.60
2011,04,29,00,41,4.60
2011,04,29,00,42,4.50
2011,04,29,00,43,4.50
2011,04,29,00,44,4.50
2011,04,29,00,45,4.50
2011,04,29,00,46,4.40
2011,04,29,00,47,4.40
2011,04,29,00,48,4.40
2011,04,29,00,49,4.40
2011,04,29,00,50,4.40
2011,04,29,00,51,4.40
2011,04,29,00,52,4.40
2011,04,29,00,53,4.40
2011,04,29,00,54,4.40
2011,04,29,00,55,4.30
2011,04,29,00,56,4.30
2011,04,29,00,57,4.30
2011,04,29,00,58,4.30
2011,04,29,00,59,4.30
2011,04,29,01,00,4.20
2011,04,29,01,01,4.20
2011,04,29,01,02,4.20
2011,04,29,01,03,4.20
2011,04,29,01,04,4.20
2011,04,29,01,05,4.10
2011,04,29,01,06,4.10
2011,04,29,01,07,4.10
2011,04,29,01,08,4.10
2011,04,29,01,09,4.10
2011,04,29,01,10,4.10
2011,04,29,01,11,4.10
2011,04,29,01,12,4.10
2011,04,29,01,13,4.10
2011,04,29,01,14,4.10
2011,04,29,01,15,4.10
2011,04,29,01,16,4.10
2011,04,29,01,17,4.10
2011,04,29,01,18,4.10
2011,04,29,01,19,4.10
2011,04,29,01,20,4.10
2011,04,29,01,21,4.10
2011,04,29,01,22,4.20
2011,04,29,01,23,4.20
2011,04,29,01,24,4.20
2011,04,29,01,25,4.30
2011,04,29,01,26,4.30
2011,04,29,01,27,4.30
2011,04,29,01,28,4.30
2011,04,29,01,29,4.40
2011,04,29,01,30,4.40
2011,04,29,01,31,4.40
2011,04,29,01,32,4.40
2011,04,29,01,33,4.40
2011,04,29,01,34,4.40
2011,04,29,01,35,4.40
2011,04,29,01,36,4.40
2011,04,29,01,37,4.50
2011,04,29,01,38,4.50
2011,04,29,01,39,4.50
2011,04,29,01,40,4.50
2011,04,29,01,41,4.60
2011,04,29,01,42,4.60
2011,04,29,01,43,4.60
2011,04,29,01,44,4.60
2011,04,29,01,45,4.60
2011,04,29,01,46,4.60
2011,04,29,01,47,4.60
2011,04,29,01,48,4.60
2011,04,29,01,49,4.60
2011,04,29,01,50,4.70
2011,04,29,01,51,4.70
2011,04,29,01,52,4.70
2011,04,29,01,53,4.70
2011,04,29,01,54,4.70
2011,04,29,01,55,4.70
2011,04,29,01,56,4.70
2011,04,29,01,57,4.70
2011,04,29,01,58,4.70
2011,04,29,01,59,4.70
2011,04,29,02,00,4.70
2011,04,29,02,01,4.70
2011,04,29,02,02,4.70
2011,04,29,02,03,4.70
2011,04,29,02,04,4.70
2011,04,29,02,05,4.70
2011,04,29,02,06,4.70
2011,04,29,02,07,4.70
2011,04,29,02,08,4.70
2011,04,29,02,09,4.70
2011,04,29,02,10,4.70
2011,04,29,02,11,4.70
2011,04,29,02,12,4.70
2011,04,29,02,13,4.70
2011,04,29,02,14,4.70
2011,04,29,02,15,4.70
2011,04,29,02,16,4.70
2011,04,29,02,17,4.70
2011,04,29,02,18,4.60
2011,04,29,02,19,4.60
2011,04,29,02,20,4.60
2011,04,29,02,21,4.60
2011,04,29,02,22,4.60
2011,04,29,02,23,4.50
2011,04,29,02,24,4.50
2011,04,29,02,25,4.50
2011,04,29,02,26,4.50
2011,04,29,02,27,4.40
2011,04,29,02,28,4.40
2011,04,29,02,29,4.40
2011,04,29,02,30,4.40
2011,04,29,02,31,4.40
2011,04,29,02,32,4.40
2011,04,29,02,33,4.40
2011,04,29,02,34,4.40
2011,04,29,02,35,4.40
2011,04,29,02,36,4.30
2011,04,29,02,37,4.40
2011,04,29,02,38,4.40
2011,04,29,02,39,4.40
2011,04,29,02,40,4.40
2011,04,29,02,41,4.40
2011,04,29,02,42,4.40
2011,04,29,02,43,4.50
2011,04,29,02,44,4.50
2011,04,29,02,45,4.50
2011,04,29,02,46,4.50
2011,04,29,02,47,4.50
2011,04,29,02,48,4.50
2011,04,29,02,49,4.60
2011,04,29,02,50,4.60
2011,04,29,02,51,4.70
2011,04,29,02,52,4.70
2011,04,29,02,53,4.70
2011,04,29,02,54,4.80
2011,04,29,02,55,4.80
2011,04,29,02,56,4.80
2011,04,29,02,57,4.90
2011,04,29,02,58,4.90
2011,04,29,02,59,4.90
2011,04,29,03,00,4.90
2011,04,29,03,01,4.90
2011,04,29,03,02,4.90
2011,04,29,03,03,4.90
2011,04,29,03,04,4.90
2011,04,29,03,05,4.90
2011,04,29,03,06,4.90
2011,04,29,03,07,4.90
2011,04,29,03,08,4.90
2011,04,29,03,09,5.00
2011,04,29,03,10,5.00
2011,04,29,03,11,5.10
2011,04,29,03,12,5.10
2011,04,29,03,13,5.10
2011,04,29,03,14,5.10
2011,04,29,03,15,5.10
2011,04,29,03,16,5.10
2011,04,29,03,17,5.10
2011,04,29,03,18,5.10
2011,04,29,03,19,5.00
2011,04,29,03,20,5.00
2011,04,29,03,21,5.00
2011,04,29,03,22,5.00
2011,04,29,03,23,5.10
2011,04,29,03,24,5.10
2011,04,29,03,25,5.10
2011,04,29,03,26,5.10
2011,04,29,03,27,5.10
2011,04,29,03,28,5.10
2011,04,29,03,29,5.10
2011,04,29,03,30,5.10
2011,04,29,03,31,5.10
2011,04,29,03,32,5.10
2011,04,29,03,33,5.20
2011,04,29,03,34,5.20
2011,04,29,03,35,5.20
2011,04,29,03,36,5.20
2011,04,29,03,37,5.20
2011,04,29,03,38,5.20
2011,04,29,03,39,5.20
2011,04,29,03,40,5.20
2011,04,29,03,41,5.20
2011,04,29,03,42,5.20
2011,04,29,03,43,5.20
2011,04,29,03,44,5.20
2011,04,29,03,45,5.20
2011,04,29,03,46,5.10
2011,04,29,03,47,5.10
2011,04,29,03,48,5.10
2011,04,29,03,49,5.10
2011,04,29,03,50,5.10
2011,04,29,03,51,5.10
2011,04,29,03,52,5.10
2011,04,29,03,53,5.10
2011,04,29,03,54,5.10
2011,04,29,03,55,5.10
2011,04,29,03,56,5.10
2011,04,29,03,57,5.10
2011,04,29,03,58,5.10
2011,04,29,03,59,5.10
2011,04,29,04,00,5.10
2011,04,29,04,01,5.10
2011,04,29,04,02,5.10
2011,04,29,04,03,5.10
2011,04,29,04,04,5.10
2011,04,29,04,05,5.10
2011,04,29,04,06,5.10
2011,04,29,04,07,5.10
2011,04,29,04,08,5.10
2011,04,29,04,09,5.10
2011,04,29,04,10,5.10
2011,04,29,04,11,5.10
2011,04,29,04,12,5.10
2011,04,29,04,13,5.10
2011,04,29,04,14,5.10
2011,04,29,04,15,5.10
2011,04,29,04,16,5.00
2011,04,29,04,17,5.00
2011,04,29,04,18,5.00
2011,04,29,04,19,5.00
2011,04,29,04,20,5.00
2011,04,29,04,21,5.00
2011,04,29,04,22,5.00
2011,04,29,04,23,5.00
2011,04,29,04,24,5.00
2011,04,29,04,25,5.00
2011,04,29,04,26,5.00
2011,04,29,04,27,5.00
2011,04,29,04,28,4.90
2011,04,29,04,29,4.90
2011,04,29,04,30,4.90
2011,04,29,04,31,4.90
2011,04,29,04,32,4.90
2011,04,29,04,33,5.00
2011,04,29,04,34,4.90
2011,04,29,04,35,4.90
2011,04,29,04,36,5.00
2011,04,29,04,37,5.00
2011,04,29,04,38,4.90
2011,04,29,04,39,4.90
2011,04,29,04,40,4.90
2011,04,29,04,41,4.90
2011,04,29,04,42,4.90
2011,04,29,04,43,4.80
2011,04,29,04,44,4.80
2011,04,29,04,45,4.80
2011,04,29,04,46,4.70
2011,04,29,04,47,4.70
2011,04,29,04,48,4.70
2011,04,29,04,49,4.70
2011,04,29,04,50,4.70
2011,04,29,04,51,4.60
2011,04,29,04,52,4.60
2011,04,29,04,53,4.60
2011,04,29,04,54,4.60
2011,04,29,04,55,4.60
2011,04,29,04,56,4.60
2011,04,29,04,57,4.60
2011,04,29,04,58,4.50
2011,04,29,04,59,4.50
2011,04,29,05,00,4.50
2011,04,29,05,01,4.50
2011,04,29,05,02,4.40
2011,04,29,05,03,4.40
2011,04,29,05,04,4.40
2011,04,29,05,05,4.30
2011,04,29,05,06,4.30
2011,04,29,05,07,4.30
2011,04,29,05,08,4.30
2011,04,29,05,09,4.30
2011,04,29,05,10,4.30
2011,04,29,05,11,4.30
2011,04,29,05,12,4.30
2011,04,29,05,13,4.20
2011,04,29,05,14,4.20
2011,04,29,05,15,4.20
2011,04,29,05,16,4.20
2011,04,29,05,17,4.20
2011,04,29,05,18,4.10
2011,04,29,05,19,4.10
2011,04,29,05,20,4.10
2011,04,29,05,21,4.10
2011,04,29,05,22,4.10
2011,04,29,05,23,4.00
2011,04,29,05,24,4.00
2011,04,29,05,25,3.90
2011,04,29,05,26,3.90
2011,04,29,05,27,3.90
2011,04,29,05,28,3.90
2011,04,29,05,29,3.90
2011,04,29,05,30,3.90
2011,04,29,05,31,3.90
2011,04,29,05,32,3.90
2011,04,29,05,33,3.90
2011,04,29,05,34,3.90
2011,04,29,05,35,3.90
2011,04,29,06,44,3.80
2011,04,29,06,45,3.80
2011,04,29,06,46,3.80
2011,04,29,06,47,3.80
2011,04,29,06,48,3.80
2011,04,29,06,49,3.90
2011,04,29,06,50,3.90
2011,04,29,06,51,3.90
2011,04,29,06,52,3.90
2011,04,29,06,53,3.90
2011,04,29,06,54,3.90
2011,04,29,06,55,3.90
2011,04,29,06,56,3.90
2011,04,29,06,57,3.90
2011,04,29,06,58,4.00
2011,04,29,06,59,4.00
2011,04,29,07,00,4.00
2011,04,29,07,01,4.00
2011,04,29,07,02,4.10
2011,04,29,07,03,4.10
2011,04,29,07,04,4.10
2011,04,29,07,05,4.10
2011,04,29,07,06,4.10
2011,04,29,07,07,4.10
2011,04,29,07,08,4.10
2011,04,29,07,09,4.10
2011,04,29,07,10,4.10
2011,04,29,07,11,4.10
2011,04,29,07,12,4.20
2011,04,29,07,13,4.20
2011,04,29,07,14,4.20
2011,04,29,07,15,4.20
2011,04,29,07,16,4.30
2011,04,29,07,17,4.30
2011,04,29,07,18,4.30
2011,04,29,07,19,4.30
2011,04,29,07,20,4.30
2011,04,29,07,21,4.30
2011,04,29,07,22,4.40
2011,04,29,07,23,4.40
2011,04,29,07,24,4.40
2011,04,29,07,25,4.50
2011,04,29,07,26,4.50
2011,04,29,07,27,4.50
2011,04,29,07,28,4.60
2011,04,29,07,29,4.60
2011,04,29,07,30,4.60
2011,04,29,07,31,4.70
2011,04,29,07,32,4.70
2011,04,29,07,33,4.70
2011,04,29,07,34,4.70
2011,04,29,07,35,4.80
2011,04,29,07,36,4.80
2011,04,29,07,37,4.80
2011,04,29,07,38,4.90
2011,04,29,07,39,4.90
2011,04,29,07,40,4.90
2011,04,29,07,41,5.00
2011,04,29,07,42,5.00
2011,04,29,07,43,5.10
2011,04,29,07,44,5.10
2011,04,29,07,45,5.10
2011,04,29,07,46,5.10
2011,04,29,07,47,5.20
2011,04,29,07,48,5.20
2011,04,29,07,49,5.30
2011,04,29,07,50,5.30
2011,04,29,07,51,5.30
2011,04,29,07,52,5.40
2011,04,29,07,53,5.40
2011,04,29,07,54,5.50
2011,04,29,07,55,5.60
2011,04,29,07,56,5.60
2011,04,29,07,57,5.70
2011,04,29,07,58,5.80
2011,04,29,07,59,5.80
2011,04,29,08,00,5.80
2011,04,29,08,01,5.90
2011,04,29,08,02,6.00
2011,04,29,08,03,6.00
2011,04,29,08,04,6.00
2011,04,29,08,05,6.10
2011,04,29,08,06,6.10
2011,04,29,08,07,6.20
2011,04,29,08,08,6.20
2011,04,29,08,09,6.30
2011,04,29,08,10,6.30
2011,04,29,08,11,6.40
2011,04,29,08,12,6.40
2011,04,29,08,13,6.40
2011,04,29,08,14,6.50
2011,04,29,08,15,6.50
2011,04,29,08,16,6.60
2011,04,29,08,17,6.70
2011,04,29,08,18,6.70
2011,04,29,08,19,6.80
2011,04,29,08,20,6.80
2011,04,29,08,21,6.90
2011,04,29,08,22,6.90
2011,04,29,08,23,7.00
2011,04,29,08,24,7.00
2011,04,29,08,25,7.10
2011,04,29,08,26,7.20
2011,04,29,08,27,7.20
2011,04,29,08,28,7.20
2011,04,29,08,29,7.20
2011,04,29,08,30,7.20
2011,04,29,08,31,7.30
2011,04,29,08,32,7.30
2011,04,29,08,33,7.40
2011,04,29,08,34,7.50
2011,04,29,08,35,7.50
2011,04,29,08,36,7.60
2011,04,29,08,37,7.70
2011,04,29,08,38,7.70
2011,04,29,08,39,7.70
2011,04,29,08,40,7.70
2011,04,29,08,41,7.80
2011,04,29,08,42,7.80
2011,04,29,08,43,7.80
2011,04,29,08,44,7.80
2011,04,29,08,45,7.80
2011,04,29,08,46,7.80
2011,04,29,08,47,7.90
2011,04,29,08,48,7.90
2011,04,29,08,49,7.90
2011,04,29,08,50,8.00
2011,04,29,08,51,8.00
2011,04,29,08,52,8.00
2011,04,29,08,53,8.10
2011,04,29,08,54,8.10
2011,04,29,08,55,8.10
2011,04,29,08,56,8.10
2011,04,29,08,57,8.20
2011,04,29,08,58,8.20
2011,04,29,08,59,8.20
2011,04,29,09,00,8.20
2011,04,29,09,01,8.20
2011,04,29,09,02,8.20
2011,04,29,09,03,8.30
2011,04,29,09,04,8.30
2011,04,29,09,05,8.40
2011,04,29,09,06,8.40
2011,04,29,09,07,8.50
2011,04,29,09,08,8.60
2011,04,29,09,09,8.60
2011,04,29,09,10,8.70
2011,04,29,09,11,8.80
2011,04,29,09,12,8.80
2011,04,29,09,13,8.70
2011,04,29,09,14,8.70
2011,04,29,09,15,8.60
2011,04,29,09,16,8.60
2011,04,29,09,17,8.60
2011,04,29,09,18,8.60
2011,04,29,09,19,8.60
2011,04,29,09,20,8.60
2011,04,29,09,21,8.60
2011,04,29,09,22,8.70
2011,04,29,09,23,8.70
2011,04,29,09,24,8.70
2011,04,29,09,25,8.80
2011,04,29,09,26,8.80
2011,04,29,09,27,8.80
2011,04,29,09,28,8.90
2011,04,29,09,29,8.90
2011,04,29,09,30,8.90
2011,04,29,09,31,9.00
2011,04,29,09,32,9.00
2011,04,29,09,33,8.90
2011,04,29,09,34,8.90
2011,04,29,09,35,8.90
2011,04,29,09,36,8.80
2011,04,29,09,37,8.80
2011,04,29,09,38,8.80
2011,04,29,09,39,8.80
2011,04,29,09,40,8.80
2011,04,29,09,41,8.80
2011,04,29,09,42,8.80
2011,04,29,09,43,8.90
2011,04,29,09,44,8.90
2011,04,29,09,45,9.00
2011,04,29,09,46,9.00
2011,04,29,09,47,9.10
2011,04,29,09,48,9.20
2011,04,29,09,49,9.30
2011,04,29,09,50,9.30
2011,04,29,09,51,9.30
2011,04,29,09,52,9.30
2011,04,29,09,53,9.30
2011,04,29,09,54,9.40
2011,04,29,09,55,9.40
2011,04,29,09,56,9.40
2011,04,29,09,57,9.50
2011,04,29,09,58,9.50
2011,04,29,09,59,9.60
2011,04,29,10,00,9.70
2011,04,29,10,01,9.70
2011,04,29,10,02,9.80
2011,04,29,10,03,9.80
2011,04,29,10,04,9.90
2011,04,29,10,05,9.90
2011,04,29,10,06,10.00
2011,04,29,10,07,10.10
2011,04,29,10,08,10.10
2011,04,29,10,09,10.10
2011,04,29,10,10,10.10
2011,04,29,10,11,10.10
2011,04,29,10,12,10.10
2011,04,29,10,13,10.10
2011,04,29,10,14,10.10
2011,04,29,10,15,10.10
2011,04,29,10,16,10.10
2011,04,29,10,17,10.10
2011,04,29,10,18,10.10
2011,04,29,10,19,10.00
2011,04,29,10,20,9.90
2011,04,29,10,21,9.90
2011,04,29,10,22,9.90
2011,04,29,10,23,9.90
2011,04,29,10,24,9.90
2011,04,29,10,25,9.80
2011,04,29,10,26,9.80
2011,04,29,10,27,9.80
2011,04,29,10,28,9.80
2011,04,29,10,29,9.70
2011,04,29,10,30,9.70
2011,04,29,10,31,9.70
2011,04,29,10,32,9.70
2011,04,29,10,33,9.80
2011,04,29,10,34,9.80
2011,04,29,10,35,9.90
2011,04,29,10,36,9.90
2011,04,29,10,37,9.80
2011,04,29,10,38,9.80
2011,04,29,10,39,9.90
2011,04,29,10,40,9.90
2011,04,29,10,41,10.00
2011,04,29,10,42,10.00
2011,04,29,10,43,10.10
2011,04,29,10,44,10.20
2011,04,29,10,45,10.20
2011,04,29,10,46,10.30
2011,04,29,10,47,10.30
2011,04,29,10,48,10.30
2011,04,29,10,49,10.30
2011,04,29,10,50,10.40
2011,04,29,10,51,10.50
2011,04,29,10,52,10.50
2011,04,29,10,53,10.60
2011,04,29,10,54,10.60
2011,04,29,10,55,10.60
2011,04,29,10,56,10.60
2011,04,29,10,57,10.70
2011,04,29,10,58,10.70
2011,04,29,10,59,10.70
2011,04,29,11,00,10.60
2011,04,29,11,01,10.60
2011,04,29,11,02,10.50
2011,04,29,11,03,10.50
2011,04,29,11,04,10.60
2011,04,29,11,05,10.70
2011,04,29,11,06,10.80
2011,04,29,11,07,10.80
2011,04,29,11,08,10.80
2011,04,29,11,09,10.80
2011,04,29,11,10,10.80
2011,04,29,11,11,10.80
2011,04,29,11,12,10.80
2011,04,29,11,13,10.80
2011,04,29,11,14,10.80
2011,04,29,11,15,10.80
2011,04,29,11,16,10.80
2011,04,29,11,17,10.80
2011,04,29,11,18,10.90
2011,04,29,11,19,10.80
2011,04,29,11,20,10.70
2011,04,29,11,21,10.60
2011,04,29,11,22,10.60
2011,04,29,11,23,10.60
2011,04,29,11,24,10.70
2011,04,29,11,25,10.70
2011,04,29,11,26,10.70
2011,04,29,11,27,10.80
2011,04,29,11,28,10.80
2011,04,29,11,29,10.80
2011,04,29,11,30,10.80
2011,04,29,11,31,10.80
2011,04,29,11,32,10.80
2011,04,29,11,33,10.90
2011,04,29,11,34,10.90
2011,04,29,11,35,10.90
2011,04,29,11,36,10.90
2011,04,29,11,37,11.00
2011,04,29,11,38,11.10
2011,04,29,11,39,11.10
2011,04,29,11,40,11.10
2011,04,29,11,41,11.00
2011,04,29,11,42,11.00
2011,04,29,11,43,11.00
2011,04,29,11,44,11.10
2011,04,29,11,45,11.10
2011,04,29,11,46,11.00
2011,04,29,11,47,11.00
2011,04,29,11,48,11.00
2011,04,29,11,49,11.00
2011,04,29,11,50,11.00
2011,04,29,11,51,11.00
2011,04,29,11,52,11.00
2011,04,29,11,53,11.10
2011,04,29,11,54,11.10
2011,04,29,11,55,11.10
2011,04,29,11,56,11.00
2011,04,29,11,57,10.90
2011,04,29,11,58,10.90
2011,04,29,11,59,10.80
2011,04,29,12,00,10.80
2011,04,29,12,01,10.80
2011,04,29,12,02,10.80
2011,04,29,12,03,10.90
2011,04,29,12,04,10.90
2011,04,29,12,05,10.90
2011,04,29,12,06,11.00
2011,04,29,12,07,11.00
2011,04,29,12,08,11.00
2011,04,29,12,09,11.00
2011,04,29,12,10,11.00
2011,04,29,12,11,11.00
2011,04,29,12,12,11.10
2011,04,29,12,13,11.10
2011,04,29,12,14,11.00
2011,04,29,12,15,10.90
2011,04,29,12,16,10.80
2011,04,29,12,17,10.60
2011,04,29,12,18,10.60
2011,04,29,12,19,10.60
2011,04,29,12,20,10.70
2011,04,29,12,21,10.70
2011,04,29,12,22,10.80
2011,04,29,12,23,10.90
2011,04,29,12,24,11.00
2011,04,29,12,25,11.00
2011,04,29,12,26,11.00
2011,04,29,12,27,11.00
2011,04,29,12,28,10.90
2011,04,29,12,29,10.90
2011,04,29,12,30,10.90
2011,04,29,12,31,10.90
2011,04,29,12,32,10.90
2011,04,29,12,33,10.80
2011,04,29,12,34,10.70
2011,04,29,12,35,10.80
2011,04,29,12,36,10.80
2011,04,29,12,37,10.80
2011,04,29,12,38,10.90
2011,04,29,12,39,10.90
2011,04,29,12,40,10.90
2011,04,29,12,41,10.90
2011,04,29,12,42,10.80
2011,04,29,12,43,10.70
2011,04,29,12,44,10.70
2011,04,29,12,45,10.70
2011,04,29,12,46,10.80
2011,04,29,12,47,10.80
2011,04,29,12,48,10.90
2011,04,29,12,49,11.00
2011,04,29,12,50,11.10
2011,04,29,12,51,11.20
2011,04,29,12,52,11.30
2011,04,29,12,53,11.30
2011,04,29,12,54,11.40
2011,04,29,12,55,11.40
2011,04,29,12,56,11.40
2011,04,29,12,57,11.40
2011,04,29,12,58,11.30
2011,04,29,12,59,11.30
2011,04,29,13,00,11.20
2011,04,29,13,01,11.20
2011,04,29,13,02,11.20
2011,04,29,13,03,11.10
2011,04,29,13,04,11.10
2011,04,29,13,05,11.00
2011,04,29,13,06,10.90
2011,04,29,13,07,10.90
2011,04,29,13,08,10.80
2011,04,29,13,09,10.90
2011,04,29,13,10,10.90
2011,04,29,13,11,10.90
2011,04,29,13,12,10.90
2011,04,29,13,13,10.80
2011,04,29,13,14,10.90
2011,04,29,13,15,10.90
2011,04,29,13,16,11.00
2011,04,29,13,17,11.10
2011,04,29,13,18,11.10
2011,04,29,13,19,11.20
2011,04,29,13,20,11.20
2011,04,29,13,21,11.30
2011,04,29,13,22,11.30
2011,04,29,13,23,11.30
2011,04,29,13,24,11.40
2011,04,29,13,25,11.40
2011,04,29,13,26,11.50
2011,04,29,13,27,11.60
2011,04,29,13,28,11.60
2011,04,29,13,29,11.70
2011,04,29,13,30,11.80
2011,04,29,13,31,11.90
2011,04,29,13,32,11.90
2011,04,29,13,33,11.90
2011,04,29,13,34,11.90
2011,04,29,13,35,11.90
2011,04,29,13,36,12.00
2011,04,29,13,37,11.90
2011,04,29,13,38,11.90
2011,04,29,13,39,11.70
2011,04,29,13,40,11.70
2011,04,29,13,41,11.70
2011,04,29,13,42,11.70
2011,04,29,13,43,11.70
2011,04,29,13,44,11.80
2011,04,29,13,45,11.80
2011,04,29,13,46,11.80
2011,04,29,13,47,11.90
2011,04,29,13,48,12.00
2011,04,29,13,49,12.10
2011,04,29,13,50,12.20
2011,04,29,13,51,12.30
2011,04,29,13,52,12.50
2011,04,29,13,53,12.70
2011,04,29,13,54,12.80
2011,04,29,13,55,12.90
2011,04,29,13,56,12.90
2011,04,29,13,57,12.90
2011,04,29,13,58,12.90
2011,04,29,13,59,12.80
2011,04,29,14,00,12.80
2011,04,29,14,01,12.80
2011,04,29,14,02,12.90
2011,04,29,14,03,12.90
2011,04,29,14,04,13.00
2011,04,29,14,05,13.00
2011,04,29,14,06,13.00
2011,04,29,14,07,13.00
2011,04,29,14,08,13.00
2011,04,29,14,09,13.00
2011,04,29,14,10,13.10
2011,04,29,14,11,13.00
2011,04,29,14,12,13.00
2011,04,29,14,13,13.10
2011,04,29,14,14,13.10
2011,04,29,14,15,13.00
2011,04,29,14,16,12.90
2011,04,29,14,17,12.80
2011,04,29,14,18,12.90
2011,04,29,14,19,12.90
2011,04,29,14,20,12.90
2011,04,29,14,21,12.80
2011,04,29,14,22,12.70
2011,04,29,14,23,12.60
2011,04,29,14,24,12.40
2011,04,29,14,25,12.30
2011,04,29,14,26,12.00
2011,04,29,14,27,11.90
2011,04,29,14,28,12.00
2011,04,29,14,29,12.00
2011,04,29,14,30,12.00
2011,04,29,14,31,12.10
2011,04,29,14,32,12.10
2011,04,29,14,33,12.10
2011,04,29,14,34,12.10
2011,04,29,14,35,12.10
2011,04,29,14,36,12.10
2011,04,29,14,37,12.20
2011,04,29,14,38,12.40
2011,04,29,14,39,12.50
2011,04,29,14,40,12.60
2011,04,29,14,41,12.60
2011,04,29,14,42,12.70
2011,04,29,14,43,12.70
2011,04,29,14,44,12.60
2011,04,29,14,45,12.50
2011,04,29,14,46,12.40
2011,04,29,14,47,12.30
2011,04,29,14,48,12.20
2011,04,29,14,49,12.20
2011,04,29,14,50,12.30
2011,04,29,14,51,12.30
2011,04,29,14,52,12.50
2011,04,29,14,53,12.60
2011,04,29,14,54,12.70
2011,04,29,14,55,12.70
2011,04,29,14,56,12.70
2011,04,29,14,57,12.70
2011,04,29,14,58,12.80
2011,04,29,14,59,12.70
2011,04,29,15,00,12.60
2011,04,29,15,01,12.50
2011,04,29,15,02,12.50
2011,04,29,15,03,12.50
2011,04,29,15,04,12.50
2011,04,29,15,05,12.60
2011,04,29,15,06,12.60
2011,04,29,15,07,12.70
2011,04,29,15,08,12.70
2011,04,29,15,09,12.80
2011,04,29,15,10,12.80
2011,04,29,15,11,12.90
2011,04,29,15,12,12.90
2011,04,29,15,13,12.90
2011,04,29,15,14,12.80
2011,04,29,15,15,12.70
2011,04,29,15,16,12.70
2011,04,29,15,17,12.70
2011,04,29,15,18,12.70
2011,04,29,15,19,12.60
2011,04,29,15,20,12.60
2011,04,29,15,21,12.70
2011,04,29,15,22,12.70
2011,04,29,15,23,12.70
2011,04,29,15,24,12.60
2011,04,29,15,25,12.50
2011,04,29,15,26,12.50
2011,04,29,15,27,12.50
2011,04,29,15,28,12.60
2011,04,29,15,29,12.50
2011,04,29,15,30,12.50
2011,04,29,15,31,12.40
2011,04,29,15,32,12.20
2011,04,29,15,33,12.20
2011,04,29,15,34,12.20
2011,04,29,15,35,12.20
2011,04,29,15,36,12.20
2011,04,29,15,37,12.20
2011,04,29,15,38,12.20
2011,04,29,15,39,12.20
2011,04,29,15,40,12.20
2011,04,29,15,41,12.20
2011,04,29,15,42,12.10
2011,04,29,15,43,12.20
2011,04,29,15,44,12.20
2011,04,29,15,45,12.30
2011,04,29,15,46,12.30
2011,04,29,15,47,12.30
2011,04,29,15,48,12.20
2011,04,29,15,49,12.20
2011,04,29,15,50,12.20
2011,04,29,15,51,12.20
2011,04,29,15,52,12.30
2011,04,29,15,53,12.40
2011,04,29,15,54,12.50
2011,04,29,15,55,12.60
2011,04,29,15,56,12.70
2011,04,29,15,57,12.80
2011,04,29,15,58,12.90
2011,04,29,15,59,13.00
2011,04,29,16,00,13.00
2011,04,29,16,01,13.10
2011,04,29,16,02,13.10
2011,04,29,16,03,13.10
2011,04,29,16,04,13.10
2011,04,29,16,05,13.00
2011,04,29,16,06,13.00
2011,04,29,16,07,13.00
2011,04,29,16,08,13.00
2011,04,29,16,09,12.90
2011,04,29,16,10,12.80
2011,04,29,16,11,12.80
2011,04,29,16,12,12.80
2011,04,29,16,13,12.70
2011,04,29,16,14,12.60
2011,04,29,16,15,12.60
2011,04,29,16,16,12.60
2011,04,29,16,17,12.60
2011,04,29,16,18,12.70
2011,04,29,16,19,12.70
2011,04,29,16,20,12.80
2011,04,29,16,21,12.80
2011,04,29,16,22,12.80
2011,04,29,16,23,12.80
2011,04,29,16,24,12.80
2011,04,29,16,25,12.90
2011,04,29,16,26,12.90
2011,04,29,16,27,12.90
2011,04,29,16,28,12.90
2011,04,29,16,29,12.90
2011,04,29,16,30,12.90
2011,04,29,16,31,12.90
2011,04,29,16,32,12.80
2011,04,29,16,33,12.80
2011,04,29,16,34,12.80
2011,04,29,16,35,12.80
2011,04,29,16,36,12.80
2011,04,29,16,37,12.80
2011,04,29,16,38,12.80
2011,04,29,16,39,12.80
2011,04,29,16,40,12.80
2011,04,29,16,41,12.80
2011,04,29,16,42,12.80
2011,04,29,16,43,12.80
2011,04,29,16,44,12.80
2011,04,29,16,45,12.80
2011,04,29,16,46,12.80
2011,04,29,16,47,12.80
2011,04,29,16,48,12.80
2011,04,29,16,49,12.80
2011,04,29,16,50,12.80
2011,04,29,16,51,12.80
2011,04,29,16,52,12.80
2011,04,29,16,53,12.70
2011,04,29,16,54,12.70
2011,04,29,16,55,12.70
2011,04,29,16,56,12.70
2011,04,29,16,57,12.70
2011,04,29,16,58,12.70
2011,04,29,16,59,12.60
2011,04,29,17,00,12.60
2011,04,29,17,01,12.70
2011,04,29,17,02,12.70
2011,04,29,17,03,12.70
2011,04,29,17,04,12.70
2011,04,29,17,05,12.70
2011,04,29,17,06,12.70
2011,04,29,17,07,12.70
2011,04,29,17,08,12.80
2011,04,29,17,09,12.80
2011,04,29,17,10,12.80
2011,04,29,17,11,12.90
2011,04,29,17,12,13.00
2011,04,29,17,13,13.10
2011,04,29,17,14,13.10
2011,04,29,17,15,13.10
2011,04,29,17,16,13.10
2011,04,29,17,17,13.10
2011,04,29,17,18,13.10
2011,04,29,17,19,13.10
2011,04,29,17,20,13.00
2011,04,29,17,21,12.90
2011,04,29,17,22,12.90
2011,04,29,17,23,12.80
2011,04,29,17,24,12.70
2011,04,29,17,25,12.70
2011,04,29,17,26,12.80
2011,04,29,17,27,12.80
2011,04,29,17,28,12.90
2011,04,29,17,29,13.00
2011,04,29,17,30,13.10
2011,04,29,17,31,13.10
2011,04,29,17,32,13.10
2011,04,29,17,33,13.10
2011,04,29,17,34,13.10
2011,04,29,17,35,13.10
2011,04,29,17,36,13.10
2011,04,29,17,37,13.10
2011,04,29,17,38,13.00
2011,04,29,17,39,13.00
2011,04,29,17,40,13.00
2011,04,29,17,41,13.00
2011,04,29,17,42,12.90
2011,04,29,17,43,12.90
2011,04,29,17,44,12.90
2011,04,29,17,45,12.90
2011,04,29,17,46,12.90
2011,04,29,17,47,12.90
2011,04,29,17,48,12.90
2011,04,29,17,49,12.80
2011,04,29,17,50,12.80
2011,04,29,17,51,12.80
2011,04,29,17,52,12.80
2011,04,29,17,53,12.80
2011,04,29,17,54,12.80
2011,04,29,17,55,12.80
2011,04,29,17,56,12.80
2011,04,29,17,57,12.90
2011,04,29,17,58,12.90
2011,04,29,17,59,13.00
2011,04,29,18,00,13.00
2011,04,29,18,01,13.00
2011,04,29,18,02,13.00
2011,04,29,18,03,12.90
2011,04,29,18,04,12.90
2011,04,29,18,05,13.00
2011,04,29,18,06,13.00
2011,04,29,18,07,13.10
2011,04,29,18,08,13.10
2011,04,29,18,09,13.10
2011,04,29,18,10,13.10
2011,04,29,18,11,13.10
2011,04,29,18,12,13.10
2011,04,29,18,13,13.00
2011,04,29,18,14,13.00
2011,04,29,18,15,13.00
2011,04,29,18,16,12.90
2011,04,29,18,17,12.80
2011,04,29,18,18,12.80
2011,04,29,18,19,12.80
2011,04,29,18,20,12.80
2011,04,29,18,21,12.80
2011,04,29,18,22,12.80
2011,04,29,18,23,12.80
2011,04,29,18,24,12.80
2011,04,29,18,25,12.80
2011,04,29,18,26,12.90
2011,04,29,18,27,13.00
2011,04,29,18,28,13.10
2011,04,29,18,29,13.20
2011,04,29,18,30,13.20
2011,04,29,18,31,13.20
2011,04,29,18,32,13.30
2011,04,29,18,33,13.30
2011,04,29,18,34,13.30
2011,04,29,18,35,13.30
2011,04,29,18,36,13.30
2011,04,29,18,37,13.20
2011,04,29,18,38,13.10
2011,04,29,18,39,13.10
2011,04,29,18,40,13.10
2011,04,29,18,41,13.10
2011,04,29,18,42,13.00
2011,04,29,18,43,12.90
2011,04,29,18,44,12.90
2011,04,29,18,45,12.90
2011,04,29,18,46,12.90
2011,04,29,18,47,12.80
2011,04,29,18,48,12.80
2011,04,29,18,49,12.60
2011,04,29,18,50,12.50
2011,04,29,18,51,12.40